User: anonymous   Login
Location: Unspecified
(0.0000°N, 0.0000°E)
Time: 05:14:25
(UTC+01:00)
Language:

Delta 168 - Orbit

View from above orbital plane
View from above orbital plane
View from above satellite
View from above satellite

Ground track
Ground track

The orbit data is extracted from the following two-line orbital elements,

1 14051U 83041B   15026.86821127  .00004646  00000-0  44096-3 0  7046
2 14051 025.3441 007.6050 1119562 238.6873 115.7070 13.03378008464246
Epoch (UTC): 26 January 2015 20:50:13
Eccentricity: 0.1119562
inclination: 25.3441°
perigee height: 395 km
apogee height: 2103 km
right ascension of ascending node: 7.6050°
argument of perigee: 238.6873°
revolutions per day: 13.03378008
mean anomaly at epoch: 115.7070°
orbit number at epoch: 46424

The dashed part of the orbit path shows where the satellite is in the earth's shadow,  

DLR